TimeCDT,TemperatureF,Dew PointF,Humidity,Sea Level PressureIn,VisibilityMPH,Wind Direction,Wind SpeedMPH,Gust SpeedMPH,PrecipitationIn,Events,Conditions,WindDirDegrees,DateUTC
12:15 AM,66.2,46.4,49,29.94,10.0,SSE,10.4,-,N/A,,Clear,150,2014-05-11 05:15:00
12:35 AM,66.2,44.6,46,29.93,10.0,SSE,12.7,-,N/A,,Clear,150,2014-05-11 05:35:00
12:55 AM,66.2,46.4,49,29.93,10.0,SSE,11.5,-,N/A,,Clear,150,2014-05-11 05:55:00
1:15 AM,66.2,46.4,49,29.94,10.0,SSE,10.4,-,N/A,,Clear,160,2014-05-11 06:15:00
1:35 AM,66.2,46.4,49,29.95,10.0,South,13.8,-,N/A,,Clear,170,2014-05-11 06:35:00
1:55 AM,68.0,44.6,43,29.95,10.0,South,12.7,-,N/A,,Clear,170,2014-05-11 06:55:00
2:15 AM,68.0,46.4,46,29.95,10.0,SSE,13.8,-,N/A,,Clear,160,2014-05-11 07:15:00
2:35 AM,66.2,50.0,56,29.95,10.0,South,15.0,-,N/A,,Clear,170,2014-05-11 07:35:00
2:55 AM,64.4,53.6,68,29.95,10.0,South,15.0,-,N/A,,Clear,180,2014-05-11 07:55:00
3:15 AM,64.4,53.6,68,29.96,10.0,South,15.0,-,N/A,,Clear,180,2014-05-11 08:15:00
3:35 AM,62.6,55.4,77,29.95,10.0,South,11.5,-,N/A,,Clear,170,2014-05-11 08:35:00
3:55 AM,62.6,55.4,77,29.94,10.0,SSE,10.4,-,N/A,,Clear,160,2014-05-11 08:55:00
4:15 AM,62.6,55.4,77,29.93,10.0,SSE,8.1,-,N/A,,Clear,160,2014-05-11 09:15:00
4:35 AM,60.8,55.4,82,29.93,10.0,SE,8.1,-,N/A,,Clear,130,2014-05-11 09:35:00
4:55 AM,60.8,55.4,82,29.93,10.0,SE,8.1,-,N/A,,Clear,130,2014-05-11 09:55:00
5:15 AM,59.0,55.4,88,29.93,10.0,SE,8.1,-,N/A,,Clear,130,2014-05-11 10:15:00
5:35 AM,60.8,55.4,82,29.93,10.0,SE,8.1,-,N/A,,Clear,140,2014-05-11 10:35:00
5:55 AM,59.0,55.4,88,29.93,10.0,SE,8.1,-,N/A,,Clear,140,2014-05-11 10:55:00
6:15 AM,59.0,55.4,88,29.94,10.0,SE,8.1,-,N/A,,Clear,130,2014-05-11 11:15:00
6:35 AM,60.8,55.4,82,29.93,10.0,SE,9.2,-,N/A,,Clear,140,2014-05-11 11:35:00
6:55 AM,62.6,57.2,82,29.93,10.0,SE,11.5,-,N/A,,Clear,140,2014-05-11 11:55:00
7:15 AM,64.4,57.2,77,29.94,10.0,SE,10.4,-,N/A,,Clear,140,2014-05-11 12:15:00
7:35 AM,64.4,57.2,77,29.94,10.0,SE,9.2,-,N/A,,Clear,140,2014-05-11 12:35:00
7:55 AM,64.4,57.2,77,29.94,10.0,SSE,9.2,-,N/A,,Clear,150,2014-05-11 12:55:00
8:15 AM,66.2,57.2,73,29.95,10.0,SSE,9.2,-,N/A,,Clear,150,2014-05-11 13:15:00
8:35 AM,68.0,57.2,68,29.95,10.0,SSE,12.7,-,N/A,,Clear,160,2014-05-11 13:35:00
8:55 AM,69.8,57.2,64,29.95,10.0,South,10.4,-,N/A,,Clear,170,2014-05-11 13:55:00
9:15 AM,71.6,57.2,60,29.95,10.0,South,11.5,16.1,N/A,,Clear,170,2014-05-11 14:15:00
9:35 AM,73.4,57.2,57,29.95,10.0,SSE,11.5,-,N/A,,Clear,160,2014-05-11 14:35:00
9:55 AM,73.4,57.2,57,29.95,10.0,South,10.4,-,N/A,,Clear,180,2014-05-11 14:55:00
10:15 AM,77.0,57.2,50,29.95,10.0,South,10.4,-,N/A,,Clear,180,2014-05-11 15:15:00
10:35 AM,78.8,55.4,44,29.94,10.0,South,10.4,-,N/A,,Clear,190,2014-05-11 15:35:00
10:55 AM,80.6,55.4,42,29.94,10.0,SSW,8.1,-,N/A,,Clear,200,2014-05-11 15:55:00
11:15 AM,82.4,55.4,39,29.94,10.0,SSW,12.7,17.3,N/A,,Unknown,200,2014-05-11 16:15:00
11:35 AM,84.2,53.6,35,29.94,10.0,South,16.1,20.7,N/A,,Clear,180,2014-05-11 16:35:00
11:55 AM,84.2,53.6,35,29.94,10.0,South,17.3,23.0,N/A,,Clear,190,2014-05-11 16:55:00
12:15 PM,84.2,53.6,35,29.94,10.0,South,18.4,-,N/A,,Clear,190,2014-05-11 17:15:00
12:35 PM,84.2,55.4,37,29.93,10.0,SSW,15.0,21.9,N/A,,Clear,200,2014-05-11 17:35:00
12:55 PM,84.2,57.2,40,29.93,10.0,SSW,17.3,23.0,N/A,,Clear,200,2014-05-11 17:55:00
1:15 PM,86.0,60.8,43,29.92,10.0,SW,16.1,25.3,N/A,,Clear,230,2014-05-11 18:15:00
1:35 PM,87.8,60.8,40,29.92,10.0,SSW,11.5,25.3,N/A,,Clear,200,2014-05-11 18:35:00
1:55 PM,87.8,60.8,40,29.91,10.0,SSW,13.8,21.9,N/A,,Clear,200,2014-05-11 18:55:00
2:15 PM,87.8,60.8,40,29.91,10.0,SSW,10.4,18.4,N/A,,Clear,200,2014-05-11 19:15:00
2:35 PM,87.8,60.8,40,29.91,10.0,SSW,12.7,21.9,N/A,,Scattered Clouds,200,2014-05-11 19:35:00
2:55 PM,86.0,60.8,43,29.90,10.0,SSW,13.8,-,N/A,,Scattered Clouds,200,2014-05-11 19:55:00
3:15 PM,87.8,60.8,40,29.89,10.0,South,16.1,23.0,N/A,,Scattered Clouds,180,2014-05-11 20:15:00
3:35 PM,87.8,62.6,43,29.88,10.0,South,12.7,16.1,N/A,,Scattered Clouds,190,2014-05-11 20:35:00
3:55 PM,86.0,62.6,45,29.87,10.0,South,12.7,18.4,N/A,,Clear,180,2014-05-11 20:55:00
4:15 PM,87.8,62.6,43,29.86,10.0,South,12.7,-,N/A,,Scattered Clouds,190,2014-05-11 21:15:00
4:35 PM,86.0,62.6,45,29.85,10.0,SSW,15.0,21.9,N/A,,Scattered Clouds,200,2014-05-11 21:35:00
4:55 PM,86.0,62.6,45,29.83,10.0,SSW,17.3,24.2,N/A,Thunderstorm,Scattered Clouds,200,2014-05-11 21:55:00
5:15 PM,77.0,69.8,78,29.86,7.0,WSW,24.2,29.9,0.02,Rain-Thunderstorm,Heavy Thunderstorms and Rain,240,2014-05-11 22:15:00
5:35 PM,71.6,66.2,83,29.87,7.0,SW,3.5,20.7,0.10,Rain-Thunderstorm,Heavy Thunderstorms and Rain,220,2014-05-11 22:35:00
5:55 PM,71.6,68.0,88,29.87,7.0,NW,12.7,-,0.22,Rain-Thunderstorm,Heavy Thunderstorms and Rain,310,2014-05-11 22:55:00
6:15 PM,71.6,68.0,88,29.87,2.0,SSW,8.1,26.5,0.18,Rain-Thunderstorm,Heavy Thunderstorms and Rain,200,2014-05-11 23:15:00
6:35 PM,69.8,66.2,88,29.86,10.0,Calm,Calm,-,0.19,Rain-Thunderstorm,Light Thunderstorms and Rain,0,2014-05-11 23:35:00
6:55 PM,71.6,68.0,88,29.88,10.0,SSW,5.8,-,0.19,Thunderstorm,Mostly Cloudy,210,2014-05-11 23:55:00
7:15 PM,69.8,64.4,83,29.92,10.0,NNW,15.0,18.4,0.02,Rain-Thunderstorm,Light Thunderstorms and Rain,330,2014-05-12 00:15:00
7:35 PM,68.0,66.2,94,29.94,10.0,NE,10.4,-,0.55,Rain-Thunderstorm,Heavy Thunderstorms and Rain,50,2014-05-12 00:35:00
7:55 PM,68.0,66.2,94,29.91,10.0,East,10.4,-,0.59,Rain-Thunderstorm,Light Thunderstorms and Rain,80,2014-05-12 00:55:00
8:15 PM,68.0,64.4,88,29.88,10.0,ENE,8.1,-,0.02,Rain-Thunderstorm,Light Thunderstorms and Rain,70,2014-05-12 01:15:00
8:35 PM,68.0,64.4,88,29.87,10.0,SE,6.9,-,0.02,Thunderstorm,Thunderstorm,140,2014-05-12 01:35:00
8:55 PM,66.2,64.4,94,29.87,10.0,SE,13.8,-,0.02,,Clear,130,2014-05-12 01:55:00
9:15 PM,66.2,64.4,94,29.89,10.0,SE,18.4,-,N/A,,Clear,140,2014-05-12 02:15:00
9:35 PM,66.2,64.4,94,29.89,10.0,SE,17.3,-,N/A,Thunderstorm,Clear,130,2014-05-12 02:35:00
9:55 PM,66.2,66.2,100,29.89,10.0,SE,18.4,-,N/A,Thunderstorm,Clear,130,2014-05-12 02:55:00
10:15 PM,66.2,66.2,100,29.90,10.0,SSE,12.7,-,N/A,,Clear,150,2014-05-12 03:15:00
10:35 PM,68.0,66.2,94,29.91,10.0,SSE,12.7,-,N/A,,Clear,150,2014-05-12 03:35:00
10:55 PM,69.8,66.2,88,29.91,10.0,SSE,18.4,-,N/A,,Clear,160,2014-05-12 03:55:00
11:15 PM,69.8,66.2,88,29.91,10.0,SSE,17.3,-,N/A,,Clear,160,2014-05-12 04:15:00
11:35 PM,69.8,64.4,83,29.91,10.0,SE,12.7,-,N/A,,Clear,140,2014-05-12 04:35:00
11:55 PM,69.8,64.4,83,29.91,10.0,SSE,13.8,-,N/A,,Clear,150,2014-05-12 04:55:00